MEXSAT 3

Last updated on Mon Sep 21 2026 00:02:59 GMT+0000 (Coordinated Universal Time)

1 39035U 12075B 26263.53974156 -.00000029 00000+0 00000+0 0 9994 2 39035 0.0207 106.0743 0001237 97.3376 235.5487 1.00268925 8005
UTC large
Height (km)
Speed (km/s)
/
Latitude / Longitude
Inclination (degrees)
Orbital Period (minutes)
Azimuth
Elevation
Range (km)
Doppler Factor

Next 0 passes for location: London (51.5072 / 0.1276)

No passes found over London.
MEXSAT 3